Flag for U.S.A. Weather past 2 weeks in Hudson, Wisconsin, U.S.A.

Now
22 °F

Overcast.


Feels Like: 10 °F
Forecast: 9 / 30 °F
Wind: 13 mph from South

Location: St. Paul Downtown Holman Field

Current Time: Mar 2, 2015 at 7:11:12 PM

Latest Report: Mar 2, 2015 at 6:53 PM


Visibility: 10 mi

Pressure: 30.26 "Hg

Humidity: 57%

Dew point: 9 °F

Location of HudsonLocation

Historic Weather in Hudson — Graph

°F

Hudson temperature yesterday

Maximum temperature yesterday: 28 °F (at 4:53 PM)
Minimum temperature yesterday: 12 °F (at 12:53 AM)
Average temperature yesterday: 21 °F

Past Weeks' High & Low Weather Summary

 TemperatureHumidityPressure
High32 °F (Feb 24, 10:53 AM)88% (Feb 20, 7:01 AM)30.86 "Hg (Feb 20, 7:01 AM)
Low-11 °F (Feb 23, 6:53 AM)27% (Feb 24, 1:53 PM)29.69 "Hg (Feb 24, 5:53 AM)
Average10 °F61%30.29 "Hg
* Reported Feb 15 5:53 PM — Mar 2 5:53 PM, Hudson, Weather by CustomWeather, © 2015

Note: Actual official high and low records may vary slightly from our data, if they occured in-between our weather recording intervals... More about our weather records

Advertising

Hudson weather history for previous 24 hours

 ConditionsComfort  
Time TempWeatherWind HumidityBarometerVisibility
5:53 PM
Mon, Mar 2
23 °FOvercast.14 mph53%30.28 "Hg10 mi
4:53 PM23 °FPassing clouds.13 mph53%30.29 "Hg10 mi
3:53 PM26 °FSunny.10 mph46%30.35 "Hg10 mi
2:53 PM26 °FSunny.12 mph40%30.38 "Hg10 mi
1:53 PM27 °FSunny.14 mph41%30.41 "Hg10 mi
12:53 PM26 °FSunny.13 mph40%30.46 "Hg10 mi
11:53 AM25 °FSunny.10 mph46%30.49 "Hg10 mi
10:53 AM23 °FSunny.6 mph46%30.51 "Hg10 mi
9:53 AM20 °FSunny.3 mph65%30.54 "Hg10 mi
8:53 AM17 °FSunny.7 mph74%30.55 "Hg10 mi
7:53 AM13 °FSunny.No wind81%30.53 "Hg8 mi
6:53 AM9 °FSunny.3 mph88%30.51 "Hg10 mi
5:53 AM9 °FClear.No wind84%30.51 "Hg10 mi
4:53 AM13 °FClear.3 mph77%30.51 "Hg10 mi
3:53 AM14 °FClear.6 mph77%30.50 "Hg10 mi
2:53 AM14 °FClear.9 mph73%30.48 "Hg10 mi
1:53 AM17 °FClear.12 mph68%30.49 "Hg10 mi
12:53 AM18 °FClear.13 mph65%30.47 "Hg10 mi
11:53 PM
Sun, Mar 1
21 °FOvercast.16 mph62%30.44 "Hg10 mi
10:53 PM22 °FOvercast.21 mph60%30.41 "Hg10 mi
9:53 PM24 °FOvercast.16 mph62%30.37 "Hg10 mi
8:53 PM25 °FPassing clouds.20 mph63%30.35 "Hg10 mi
7:53 PM26 °FPassing clouds.17 mph55%30.32 "Hg10 mi
Weather by CustomWeather, © 2015

See weather overviewHow to use our weather pages